Lid_Strength_Index
3 6 7 7 12 13 13 12 10 10 9 7 6 7 9 8 10 12 2 1 -0 -0 -0 -1 -1 -1 -1 -1 -2 -2 -2 -2 -2 -2 -2 -2 -2 -2 -2 -2 -2 -2 -2 -2 -2 -2 -2 -2 -2
5 6 7 9 14 17 14 11 11 9 7 6 6 7 8 10 5 4 4 0 -0 -0 -1 -1 -1 -2 -1 -1 -2 -2 -2 -2 -2 -2 -2 -2 -2 -2 -2 -2 -2 -2 -2 -2 -2 -2 -2 -2 -2
7 7 10 12 15 16 14 10 9 8 7 7 7 6 7 8 4 3 2 1 -0 -0 -1 -1 -1 -2 -2 -1 -2 -2 -2 -2 -2 -2 -2 -2 -2 -2 -2 -2 -2 -2 -2 -2 -2 -2 -2 -2 -2
9 8 10 13 15 13 13 10 8 8 8 6 6 8 6 3 4 2 1 -0 0 0 -1 -1 -2 -2 -2 -2 -2 -2 -2 -2 -2 -2 -2 -2 -2 -2 -2 -2 -2 -2 -2 -2 -2 -2 -2 -2 -2
9 10 13 13 13 14 11 9 7 8 8 8 7 10 8 4 2 2 1 0 0 0 -0 -1 -1 -2 -2 -2 -2 -2 -2 -2 -2 -2 -2 -2 -2 -2 -2 -2 -2 -2 -2 -2 -2 -2 -2 -2 -2
11 11 14 15 13 14 12 9 8 8 7 7 8 8 8 3 3 3 1 1 -0 0 -0 -1 -0 -1 -2 -2 -2 -2 -2 -2 -2 -2 -2 -2 -2 -2 -2 -2 -2 -2 -2 -2 -2 -2 -2 -2 -2
12 13 14 14 13 14 12 9 10 8 8 8 5 10 7 4 3 2 1 0 0 -0 -0 0 -0 -0 -0 -1 -1 -1 -1 -2 -2 -2 -2 -2 -2 -2 -2 -2 -2 -2 -2 -2 -2 -2 -2 -2 -2
12 11 14 14 13 12 12 10 9 8 8 7 5 9 8 4 3 2 1 0 0 0 0 0 0 -0 -0 0 0 -0 -1 -1 -1 -1 -1 -1 -1 -1 -1 -1 -2 -2 -2 -2 -2 -2 -1 -2 -2
8 13 15 14 12 11 12 12 11 9 7 6 6 5 4 2 3 2 2 2 2 1 1 0 0 0 0 0 1 0 -0 -1 -1 -0 -0 0 0 -0 -0 -1 -2 -2 -2 -2 -2 -2 -1 -1 -0
8 13 13 11 10 12 11 12 11 10 8 8 8 5 3 3 3 3 3 3 2 2 2 0 0 1 0 -1 1 0 0 0 0 0 0 0 0 0 -0 0 -1 -2 -2 -2 -2 -1 -1 -0 1
11 11 10 9 8 9 11 12 11 10 10 7 8 6 4 3 4 3 3 3 3 2 1 1 0 0 0 0 1 1 0 0 0 1 1 0 1 1 1 1 1 2 2 1 1 1 1 1 2
12 11 10 8 8 10 11 11 12 11 9 6 5 4 4 4 4 4 3 3 3 2 1 1 0 0 1 0 0 1 0 1 1 1 1 1 2 2 2 2 2 2 2 2 2 2 2 2 1
10 10 10 9 10 9 11 11 12 12 11 8 4 4 4 4 4 3 3 2 2 2 1 1 1 1 1 0 0 0 0 1 1 1 1 1 2 2 2 2 2 2 2 2 2 2 2 2 2
9 10 10 9 9 10 12 12 12 11 11 6 5 5 5 4 4 3 3 3 3 2 2 1 1 2 1 1 0 0 -0 0 1 1 1 1 1 2 2 2 2 2 2 3 2 2 2 2 2
9 10 9 9 9 11 12 13 14 11 11 8 6 5 5 4 3 4 3 3 2 2 1 1 1 1 2 2 1 1 1 1 1 1 1 1 1 1 2 2 2 2 2 3 3 3 3 3 3
12 10 14 9 8 9 11 15 12 11 12 12 6 6 5 5 4 3 2 3 2 2 2 1 1 1 1 1 1 2 2 2 2 1 1 1 0 1 2 2 2 2 2 3 3 3 3 3 3
12 16 14 12 8 10 13 15 12 9 12 12 11 7 6 5 4 3 2 3 3 2 2 2 1 1 2 2 2 1 2 2 2 2 1 1 1 1 1 2 2 2 2 3 3 3 3 2 1
15 15 13 13 10 10 13 15 13 11 11 11 12 11 7 6 5 3 2 3 3 3 2 2 1 1 1 2 2 2 2 2 2 2 1 1 1 1 1 2 2 2 3 3 3 3 1 1 1
11 13 13 11 9 11 11 13 13 12 13 13 13 13 10 7 4 3 3 2 3 3 3 2 2 1 1 1 2 2 2 2 3 2 1 1 1 1 1 1 2 3 3 3 3 3 2 2 1
11 13 14 11 9 11 11 12 11 11 12 11 12 13 12 9 7 5 4 3 3 3 3 2 2 1 1 1 1 1 1 1 1 1 1 1 1 1 1 2 2 3 3 4 4 4 3 2 2
12 13 13 13 12 11 12 13 12 11 12 12 11 12 11 10 9 7 5 4 3 3 3 3 2 2 1 1 1 2 2 3 2 2 1 1 0 1 1 2 2 3 3 3 4 4 4 4 4
15 11 11 12 13 17 12 19 13 11 11 13 12 12 12 11 9 8 6 5 4 3 2 2 3 2 2 2 2 2 2 3 2 2 1 2 1 1 1 1 2 2 3 3 4 4 3 3 3
13 10 11 12 14 15 15 18 17 13 14 12 12 12 11 11 10 8 6 5 4 3 3 2 2 3 2 2 2 2 2 1 2 2 3 2 2 1 1 1 2 2 2 3 3 4 3 2 2
9 11 12 13 14 19 15 16 16 14 14 12 12 12 10 11 11 9 6 5 5 4 3 2 2 2 2 2 2 2 2 2 3 3 2 3 2 2 2 1 1 1 1 2 3 3 2 3 3
11 13 19 20 20 20 15 16 15 13 14 12 12 12 10 10 10 9 8 6 5 5 3 3 3 2 2 2 2 2 2 2 3 2 3 3 3 3 2 1 1 1 1 1 2 2 2 3 3
13 13 18 22 22 20 18 18 15 12 10 11 12 12 11 11 10 11 8 6 5 4 3 3 3 2 2 2 2 1 2 2 2 2 2 2 2 2 1 1 0 1 1 1 1 1 2 2 3
13 16 11 16 22 21 20 18 15 14 15 14 13 14 14 12 12 11 9 6 5 4 4 3 3 2 2 2 2 2 2 2 2 3 2 2 2 2 1 0 1 1 1 1 1 2 2 3 3
11 10 16 16 21 22 19 20 17 16 14 13 15 14 14 14 12 13 11 7 6 5 4 3 2 2 3 3 2 3 2 2 3 3 2 2 2 2 2 2 1 2 2 2 2 2 3 3 4
13 14 14 14 16 19 22 19 16 13 13 13 12 12 14 14 14 13 13 11 10 9 8 5 5 5 6 5 5 5 5 5 5 5 5 4 4 3 3 3 3 3 3 4 3 4 4 4 5
10 13 13 17 18 19 20 17 16 16 16 15 15 15 15 14 14 14 13 12 11 10 10 8 9 7 7 6 6 6 6 7 7 8 8 7 8 8 6 5 5 5 5 4 4 4 4 4 6